Regional Weather Roundup
Issued by NWS State College, PA

Home | Current Version | Previous Version | Graphics & Text | Print | Product List | Glossary On
Versions: 1 2 3 4 5 6 7 8 9 10 11 12 13 14 15 16 17 18 19 20 21 22 23 24 25 26 27 28 29 30 31 32 33 34 35 36 37 38 39 40 41 42 43 44 45 46 47 48 49 50
000
ASUS41 KCTP 170810
RWRCTP

REGIONAL WEATHER ROUNDUP
NATIONAL WEATHER SERVICE STATE COLLEGE PA
400 AM EDT THU APR 17 2014

Note: "fair" indicates few or no clouds below 12,000 feet with no
significant weather and/or obstructions to visibility.

* = STATION THAT DOES NOT REPORT PRECIPITATION /E.G. RAIN...SNOW...ETC/
    THUNDER OR FOG.

PAZ002>004-007>009-013>016-020>023-029>032-170900-
WESTERN PENNSYLVANIA

CITY           SKY/WX    TMP DP  RH WIND       PRES   REMARKS
ERIE           CLEAR     36  15  42 VRB7      30.42S
MEADVILLE      PTCLDY    35  15  44 VRB6      30.38S
FRANKLIN*      PTCLDY    34  14  44 SE15G21   30.41F
NEW CASTLE     FAIR      36  15  42 SE9       30.41S
BEAVER COUNTY  NOT AVBL
BUTLER*        PTCLDY    34  14  44 E8        30.43R
PITTSBURGH INT MOCLDY    37  16  42 E12       30.39S
PITTSBURGH     CLEAR     38  15  39 E10       30.39S
INDIANA*       CLEAR     36  16  44 SE6G20    30.45S
LATROBE        CLEAR     37  18  44 S5        30.43S
WASHINGTON CO* CLEAR     36  16  44 E3        30.41R
$$

PAZ004>006-010>012-017>019-024>028-033>037-041-042-045-046-049>053-170900-
CENTRAL PENNSYLVANIA

CITY           SKY/WX    TMP DP  RH WIND       PRES   REMARKS
BRADFORD       CLEAR     28  13  53 SE6       30.44R
DUBOIS         CLEAR     32  15  49 SE14G22   30.43S
CLEARFIELD     CLEAR     28  16  60 NE8       30.50R
JOHNSTOWN      CLEAR     30  13  49 SE9       30.42R
ALTOONA        CLEAR     34  16  47 E6        30.50R
STATE COLLEGE  CLEAR     30  13  47 E5        30.52S
WILLIAMSPORT   CLEAR     28  20  71 N3        30.58R
SELINSGROVE    CLEAR     28  22  78 NW3       30.58S
FT INDIANTOWN  NOT AVBL
CAPITAL CITY   PTCLDY    35  19  52 E7        30.58R
HARRISBURG     MOCLDY    35  19  52 CALM      30.57S
YORK           CLEAR     27  24  89 CALM      30.56S
$$

PAZ038>040-043-044-047-048-054-055-060>062-067>071-170900-
EASTERN PENNSYLVANIA

CITY           SKY/WX    TMP DP  RH WIND       PRES   REMARKS
SCRANTON       CLEAR     29  17  61 E5        30.57S
MOUNT POCONO   CLEAR     27  14  58 E6        30.53R
ALLENTOWN      CLEAR     29  17  61 NE6       30.60S
QUAKERTOWN*    SUNNY     32  19  59 NE3       30.60R
READING        CLEAR     32  19  58 N3        30.58S
LANCASTER      CLEAR     31  19  61 E5        30.57R
COATESVILLE    NOT AVBL
POTTSTOWN      CLEAR     33  19  56 NE7       30.60R
BLUE BELL      CLEAR     34  21  60 NE3       30.58S
DOYLESTOWN     CLEAR     32  17  54 NE6       30.59R
WILLOW GROVE   NOT AVBL
NORTH PHILA    CLEAR     34  18  52 NE9       30.61R
PHILADELPHIA   CLEAR     38  21  50 NE10      30.59S
$$



USA.gov is the U.S. government's official web portal to all federal, state and local government web resources and services.